Location: Newark
(44.2003°N, 3.2583°E)
Time: 13:47:46
(UTC+00:00)

Explorer 7 - Pass Details

Date: 28 October 2019
Orbit: 485 x 680 km, 50.3° (Epoch: 20 November)

Event Time Altitude Azimuth Distance (km) Brightness Sun altitude
Rises 13:59:51 0° 295° (WNW) 2,554 10.4 23.4°
Reaches altitude 10° 14:02:03 10° 290° (WNW) 1,679 9.6 23.1°
Maximum altitude 14:05:41 47° 216° (SW) 663 8.7 22.7°
Drops below altitude 10° 14:09:27 10° 141° (SE) 1,731 9.5 22.3°
Sets 14:11:45 0° 136° (SE) 2,644 10.3 22.0°
